Location: Mannheim
(49.4880°N, 8.4650°E)
Time: 06:14:34
(UTC+01:00)

ISS - Pass Details

Date: 21 November 2023
Orbit: 416 x 417 km, 51.6° (Epoch: 01 December)

Event Time Altitude Azimuth Distance (km) Brightness Sun altitude
Rises 18:12:59 0° 241° (WSW) 2,354 1.6 -15.2°
Reaches altitude 10° 18:15:05 10° 238° (WSW) 1,494 0.2 -15.5°
Maximum altitude 18:18:24 66° 156° (SSE) 459 -3.7 -16.1°
Enters shadow 18:19:23 41° 89° (E) 620 -3.4 -16.2°
